Location: Coffee Ditch
(40.9640°N, 122.7500°W)
Time: 06:48:24
(UTC+00:00)

Cosmos 2228 - Pass Details

Date: 08 September 2024
Orbit: 574 x 600 km, 82.5° (Epoch: 05 October)

Event Time Altitude Azimuth Distance (km) Brightness Sun altitude
Exits shadow 12:48:15 15° 238° (WSW) 1,574 4.5 -11.3°
Maximum altitude 12:50:45 26° 285° (WNW) 1,167 4.0 -10.9°
Drops below altitude 10° 12:54:18 10° 343° (NNW) 1,917 5.6 -10.2°
Sets 12:56:49 0° 356° (N) 2,828 6.6 -9.8°
